Погода в Мокреньком

Россия / Курская область     51°17′20″N   36°40′27″E
темп.,
°C
ветер,
м/с
пор.,
м/с
влажн.,
%
обл.,
%
осадки,
мм/ч
давл.,
гПа
погр.,
м
6 мая, чт
чт600:00+12ю51367100 0.0 1012339
03:00+11ю51270100 0.0 1012402
06:00+10ю51278100 0.0 1012342
09:00+12ю71359100 0.0 1011861
12:00+15ююз9135298 0.0 10111463
15:00+17ююз8125394 0.0 10102029
18:00+13юз51268100 0.0 1010525
21:00+10сз6884100 0.0 1012455
7 мая, пт
пт700:00+8зсз3796100 3.5 1012450
03:00+8зюз24929 5.2 1013104
06:00+6зсз2593100 0.0 1015150
09:00+11сз23615 0.0 1016724
12:00+14з11425 0.0 10161762
15:00+15ююз334044 0.0 10151900
18:00+15ю3554100 0.0 1015755
21:00+10юв41071100 0.0 1014182
8 мая, сб
сб800:00+11ююв61464100 0.0 1013415
03:00+11ююв61665100 0.1 1011678
06:00+9ю71689100 1.9 1009620
09:00+10ю71395100 4.8 1008569
12:00+11ю71295100 2.8 10071068
15:00+9з51094100 6.9 1009599
18:00+9з61282100 0.9 1011627
21:00+6зсз51282100 0.9 1013679
9 мая, вс
вс900:00+6з41087100 0.0 1014621
03:00+4сз5128799 0.0 1016519
06:00+3сз51191100 0.0 1017357
09:00+7сз697378 0.0 1018773
12:00+11ссз785586 0.0 10191900
15:00+11ссз8105773 0.1 10201865
18:00+10с610615 0.0 10221788
21:00+5ссз49800 0.0 1025193
10 мая, пн
пн1000:00+3ссз39870 0.0 1026186
03:00+2с411890 0.0 1028210
06:00+3с412850 0.0 1029320
09:00+9ссв812630 0.0 10281136
12:00+13ссв911515 0.0 10271479
15:00+14ссв911515 0.0 10261606
18:00+12ссв71262100 0.0 1026812
21:00+11св7146260 0.0 1026746